Location: �quirre
(50.4736°N, 2.2351°E)
Time: 16:35:35
(UTC+00:00)

SL-16 R/B - Pass Details

Date: 07 August 2020
Orbit: 840 x 849 km, 71.0° (Epoch: 18 September)

Event Time Altitude Azimuth Distance (km) Brightness Sun altitude
Rises 00:13:37 0° 332° (NNW) 3,425 6.3 -23.1°
Reaches altitude 10° 00:16:33 10° 346° (NNW) 2,487 5.6 -23.0°
Maximum altitude 00:21:11 25° 40° (NE) 1,671 4.3 -23.0°
Drops below altitude 10° 00:25:47 10° 95° (E) 2,476 4.7 -22.9°
Sets 00:28:41 0° 108° (ESE) 3,408 5.3 -22.8°
